Weather History for Three Rivers, MI

Change the Weather History Date:

Saturday, June 16, 2012

  Actual Average Record
Temperature  
Mean Temperature 25 °C -  
Max Temperature 33 °C 26 °C 35 °C (1952)
Min Temperature 17 °C 13 °C 4 °C (1969)
Cooling Degree Days 12    
Growing Degree Days 27 (Base 50)    
Moisture  
Dew Point 16 °C    
Average Humidity 57    
Maximum Humidity 86    
Minimum Humidity 30    
Precipitation  
Precipitation 0.00 mm - - ()
Sea Level Pressure  
Sea Level Pressure 1018 hPa    
Wind  
Wind Speed 8 km/h (South)    
Max Wind Speed 24 km/h    
Max Gust Speed 34 km/h    
Visibility 16 kilometers    
Events Rain    
Averages and records for this station are not official NWS values.
T = Trace of Precipitation, MM = Missing Value Source: NWS Daily Summary

Daily Weather History Graph

Daily Weather History Graph

Search for Another Location

Airport:

Trip Planner

Search our weather history database for the weather conditions in past years. The results will help you decide how hot, cold, wet, or windy it might be!

Date:

Astronomy

Jun. 16, 2012 Rise Set
Actual Time 6:06 AM EDT 9:20 PM EDT
Civil Twilight 5:31 AM EDT 9:54 PM EDT
Nautical Twilight 4:47 AM EDT 10:38 PM EDT
Astronomical Twilight 3:54 AM EDT 11:32 PM EDT
Moon 3:56 AM EDT (6/16) 6:53 PM EDT (6/16)
Length of Visible Light 16h 22m
Length of Day
15h 13m
Waning Crescent, 8% of the Moon is Illuminated
Jun 16
Waning Crescent
Jun 19
New
Jun 26
First Quarter
Jul 3
Full
Jul 10
Last Quarter

Hourly Weather History & Observations

Time (EDT) Temp. Heat Index Dew Point Humidity Pressure Visibility Wind Dir Wind Speed Gust Speed Precip Events Conditions
12:14 AM 22.8 °C - 12.5 °C 52% 1019.2 hPa 16.1 km ESE 9.3 km/h / 2.6 m/s - N/A   Clear
12:34 AM 22.1 °C - 13.0 °C 56% 1019.2 hPa 16.1 km ESE 7.4 km/h / 2.1 m/s - N/A   Clear
12:54 AM 21.5 °C - 13.0 °C 58% 1019.5 hPa 16.1 km ESE 7.4 km/h / 2.1 m/s - N/A   Clear
1:14 AM 21.5 °C - 13.5 °C 60% 1019.2 hPa 16.1 km ESE 9.3 km/h / 2.6 m/s - N/A   Clear
1:34 AM 21.2 °C - 13.5 °C 61% 1019.5 hPa 16.1 km ESE 5.6 km/h / 1.5 m/s - N/A   Clear
1:54 AM 20.6 °C - 13.5 °C 64% 1019.5 hPa 16.1 km ESE 7.4 km/h / 2.1 m/s - N/A   Clear
2:14 AM 20.5 °C - 13.9 °C 66% 1019.2 hPa 16.1 km SE 9.3 km/h / 2.6 m/s - N/A   Clear
2:34 AM 20.2 °C - 14.0 °C 67% 1019.2 hPa 16.1 km ESE 7.4 km/h / 2.1 m/s - N/A   Clear
2:53 AM 19.8 °C - 14.0 °C 69% 1019.2 hPa 16.1 km ESE 7.4 km/h / 2.1 m/s - N/A   Clear
3:14 AM 19.7 °C - 14.2 °C 70% 1019.2 hPa 16.1 km ESE 5.6 km/h / 1.5 m/s - N/A   Clear
3:34 AM 19.2 °C - 14.1 °C 72% 1019.2 hPa 16.1 km Calm Calm - N/A   Clear
3:53 AM 18.3 °C - 14.0 °C 76% 1019.2 hPa 16.1 km Calm Calm - N/A   Clear
4:14 AM 18.7 °C - 14.1 °C 75% 1019.5 hPa 16.1 km Calm Calm - N/A   Clear
4:33 AM 17.8 °C - 14.2 °C 79% 1019.5 hPa 16.1 km Calm Calm - N/A   Clear
4:54 AM 18.3 °C - 14.5 °C 78% 1019.5 hPa 16.1 km Calm Calm - N/A   Clear
5:14 AM 17.5 °C - 14.3 °C 81% 1019.5 hPa 16.1 km Calm Calm - N/A   Clear
5:33 AM 17.2 °C - 14.3 °C 83% 1019.5 hPa 16.1 km Calm Calm - N/A   Clear
5:54 AM 16.8 °C - 14.2 °C 85% 1019.9 hPa 16.1 km Calm Calm - N/A   Clear
6:13 AM 16.8 °C - 14.4 °C 86% 1019.9 hPa 16.1 km Calm Calm - N/A   Clear
6:34 AM 17.4 °C - 14.6 °C 84% 1020.2 hPa 16.1 km Calm Calm - N/A   Clear
6:53 AM 17.3 °C - 15.0 °C 86% 1020.2 hPa 11.3 km Calm Calm - N/A   Clear
7:14 AM 18.0 °C - 15.6 °C 86% 1020.2 hPa 11.3 km Calm Calm - N/A   Clear
7:34 AM 19.2 °C - 16.0 °C 82% 1020.5 hPa 11.3 km Calm Calm - N/A   Clear
7:54 AM 20.8 °C - 16.4 °C 76% 1020.9 hPa 16.1 km Calm Calm - N/A   Clear
8:14 AM 22.1 °C - 16.1 °C 69% 1020.9 hPa 16.1 km SE 5.6 km/h / 1.5 m/s - N/A   Clear
8:34 AM 23.6 °C - 16.7 °C 65% 1020.9 hPa 16.1 km SE 9.3 km/h / 2.6 m/s - N/A   Clear
8:54 AM 23.7 °C - 16.6 °C 64% 1020.5 hPa 16.1 km SSE 7.4 km/h / 2.1 m/s - N/A   Clear
9:14 AM 23.7 °C - 17.0 °C 66% 1020.5 hPa 16.1 km Calm Calm - N/A   Clear
9:33 AM 25.1 °C - 17.1 °C 61% 1020.2 hPa 16.1 km ESE 9.3 km/h / 2.6 m/s - N/A   Clear
9:54 AM 25.6 °C - 17.3 °C 60% 1019.9 hPa 16.1 km SSE 7.4 km/h / 2.1 m/s - N/A   Clear
10:13 AM 26.6 °C - 17.3 °C 56% 1019.9 hPa 16.1 km SSE 11.1 km/h / 3.1 m/s - N/A   Clear
10:34 AM 26.3 °C - 17.6 °C 59% 1019.9 hPa 16.1 km South 5.6 km/h / 1.5 m/s - N/A   Clear
10:54 AM 27.8 °C 28.6 °C 17.6 °C 54% 1019.5 hPa 16.1 km SSE 9.3 km/h / 2.6 m/s - N/A   Clear
11:13 AM 28.8 °C 29.5 °C 17.7 °C 51% 1019.5 hPa 16.1 km SSE 9.3 km/h / 2.6 m/s - N/A   Clear
11:34 AM 28.8 °C 29.4 °C 17.5 °C 50% 1019.2 hPa 16.1 km SSE 13.0 km/h / 3.6 m/s - N/A   Scattered Clouds
11:54 AM 28.9 °C 29.5 °C 17.6 °C 50% 1019.2 hPa 16.1 km SSE 11.1 km/h / 3.1 m/s - N/A   Scattered Clouds
12:13 PM 30.0 °C 30.6 °C 17.7 °C 47% 1019.2 hPa 16.1 km South 18.5 km/h / 5.1 m/s - N/A   Scattered Clouds
12:34 PM 30.4 °C 31.0 °C 17.6 °C 46% 1018.8 hPa 16.1 km South 14.8 km/h / 4.1 m/s - N/A   Clear
12:54 PM 31.2 °C 31.8 °C 17.6 °C 44% 1018.8 hPa 16.1 km SE 14.8 km/h / 4.1 m/s - N/A   Clear
1:14 PM 31.1 °C 31.5 °C 17.1 °C 43% 1018.5 hPa 16.1 km SSE 13.0 km/h / 3.6 m/s - N/A   Scattered Clouds
1:34 PM 31.5 °C 31.6 °C 16.4 °C 40% 1018.2 hPa 16.1 km SSE 18.5 km/h / 5.1 m/s - N/A   Scattered Clouds
1:54 PM 32.0 °C 31.5 °C 14.9 °C 35% 1018.2 hPa 16.1 km South 16.7 km/h / 4.6 m/s - N/A   Scattered Clouds
2:14 PM 32.7 °C 32.1 °C 14.3 °C 33% 1017.8 hPa 16.1 km South 18.5 km/h / 5.1 m/s 27.8 km/h / 7.7 m/s N/A   Scattered Clouds
2:34 PM 33.0 °C 32.6 °C 15.0 °C 34% 1017.5 hPa 16.1 km SSW 18.5 km/h / 5.1 m/s - N/A   Clear
2:53 PM 33.2 °C 32.7 °C 15.1 °C 33% 1017.2 hPa 16.1 km South 20.4 km/h / 5.7 m/s 31.5 km/h / 8.7 m/s N/A   Clear
3:14 PM 33.1 °C 32.3 °C 14.1 °C 31% 1016.5 hPa 16.1 km South 18.5 km/h / 5.1 m/s 33.3 km/h / 9.3 m/s N/A   Scattered Clouds
3:34 PM 33.6 °C 32.8 °C 13.7 °C 30% 1016.5 hPa 16.1 km SSW 24.1 km/h / 6.7 m/s 31.5 km/h / 8.7 m/s N/A   Scattered Clouds
3:53 PM 33.2 °C 32.4 °C 14.1 °C 31% 1016.1 hPa 16.1 km South 20.4 km/h / 5.7 m/s 29.6 km/h / 8.2 m/s N/A   Clear
4:14 PM 32.5 °C 31.8 °C 14.1 °C 33% 1015.8 hPa 16.1 km South 16.7 km/h / 4.6 m/s 31.5 km/h / 8.7 m/s N/A   Scattered Clouds
4:33 PM 32.1 °C 31.5 °C 14.6 °C 34% 1015.8 hPa 16.1 km South 14.8 km/h / 4.1 m/s - N/A   Scattered Clouds
4:54 PM 31.7 °C 31.1 °C 14.3 °C 35% 1015.5 hPa 16.1 km SSW 14.8 km/h / 4.1 m/s - N/A   Scattered Clouds
5:13 PM 31.0 °C 30.5 °C 14.8 °C 37% 1015.1 hPa 16.1 km SSW 18.5 km/h / 5.1 m/s 25.9 km/h / 7.2 m/s N/A   Scattered Clouds
5:34 PM 30.5 °C 30.0 °C 14.7 °C 38% 1014.8 hPa 16.1 km SSW 13.0 km/h / 3.6 m/s 29.6 km/h / 8.2 m/s N/A   Scattered Clouds
5:54 PM 30.1 °C 29.7 °C 14.8 °C 39% 1015.1 hPa 16.1 km South 16.7 km/h / 4.6 m/s - N/A   Clear
6:14 PM 29.7 °C 29.3 °C 14.6 °C 40% 1014.8 hPa 16.1 km South 13.0 km/h / 3.6 m/s - N/A   Scattered Clouds
6:34 PM 28.2 °C 28.3 °C 15.6 °C 46% 1015.1 hPa 16.1 km SW 18.5 km/h / 5.1 m/s 29.6 km/h / 8.2 m/s N/A Rain Light Rain
6:54 PM 27.1 °C 27.6 °C 16.4 °C 52% 1015.1 hPa 16.1 km SW 9.3 km/h / 2.6 m/s - N/A   Clear
7:13 PM 27.8 °C 28.2 °C 16.4 °C 50% 1014.4 hPa 16.1 km SW 7.4 km/h / 2.1 m/s - N/A   Clear
7:34 PM 28.4 °C 28.6 °C 16.1 °C 47% 1014.1 hPa 16.1 km SW 11.1 km/h / 3.1 m/s - N/A   Clear
7:54 PM 28.1 °C 28.4 °C 16.0 °C 48% 1014.1 hPa 16.1 km SW 11.1 km/h / 3.1 m/s - N/A   Clear
8:14 PM 27.6 °C 27.9 °C 15.6 °C 48% 1013.8 hPa 16.1 km SSW 9.3 km/h / 2.6 m/s - N/A   Clear
8:34 PM 27.2 °C 27.4 °C 15.0 °C 47% 1014.1 hPa 16.1 km SSW 14.8 km/h / 4.1 m/s - N/A   Clear
9:14 PM 26.0 °C - 15.1 °C 51% 1013.8 hPa 16.1 km SSE 9.3 km/h / 2.6 m/s - N/A   Clear
9:34 PM 24.2 °C - 16.1 °C 60% 1014.1 hPa 11.3 km Calm Calm - N/A   Clear
9:53 PM 25.0 °C - 15.0 °C 54% 1014.1 hPa 16.1 km SSE 13.0 km/h / 3.6 m/s - N/A   Clear
10:14 PM 24.7 °C - 15.5 °C 56% 1014.1 hPa 16.1 km South 9.3 km/h / 2.6 m/s - N/A   Clear
10:34 PM 24.9 °C - 15.5 °C 56% 1014.1 hPa 16.1 km South 11.1 km/h / 3.1 m/s - N/A   Clear
10:53 PM 24.2 °C - 16.0 °C 60% 1014.1 hPa 16.1 km South 9.3 km/h / 2.6 m/s - N/A   Clear
11:14 PM 24.6 °C - 16.2 °C 59% 1013.8 hPa 16.1 km SSW 18.5 km/h / 5.1 m/s - N/A   Clear
11:34 PM 24.6 °C - 16.6 °C 61% 1013.4 hPa 16.1 km SSW 14.8 km/h / 4.1 m/s - N/A   Clear
11:54 PM 24.6 °C - 16.6 °C 61% 1013.4 hPa 16.1 km SSW 11.1 km/h / 3.1 m/s 27.8 km/h / 7.7 m/s N/A   Clear